Home   Weather   Barrie   Past weeks

Flag for Canada Past Weather in Barrie, Ontario, Canada — Yesterday and Last 2 Weeks

Now
77 °F

Sunny.


Feels Like: 79 °F
Forecast: 59 / 75 °F
Wind: 12 mph from Northwest

Location: Borden

Current Time: Jul 27, 2017 at 5:02:24 pm

Latest Report: Jul 27, 2017 at 4:00 pm


Visibility: 9 mi

Pressure: 29.91 "Hg

Humidity: 61%

Dew Point: 63 °F

Location of BarrieLocation

Past Weather in Barrie — Graph

°F

Barrie Temperature Yesterday

Maximum temperature yesterday: 73 °F (at 4:00 pm)
Minimum temperature yesterday: 48 °F (at 6:00 am)
Average temperature yesterday: 62 °F

High & Low Weather Summary for the Past Weeks

 TemperatureHumidityPressure
High82 °F (Jul 18, 5:00 pm)100% (Jul 12, 9:30 pm)30.22 "Hg (Jul 12, 9:30 pm)
Low48 °F (Jul 26, 6:00 am)45% (Jul 21, 3:00 pm)29.73 "Hg (Jul 24, 4:00 am)
Average67 °F85%29.97 "Hg
* Reported Jul 12 4:05 pm — Jul 27 4:00 pm, Barrie. Weather by CustomWeather, © 2017

Note: Actual official high and low records may vary slightly from our data, if they occured in-between our weather recording intervals... More about our weather records

Advertising

Barrie Weather History for the Previous 24 Hours

Scroll right to see more
 ConditionsComfort  
Time TempWeatherWind HumidityBarometerVisibility
4:00 pm
Thu, Jul 27
77 °FSunny.12 mph61%29.91 "Hg9 mi
3:00 pm79 °FPassing clouds.12 mph58%29.91 "Hg9 mi
2:00 pm77 °FSunny.8 mph69%29.91 "Hg9 mi
1:00 pm77 °FScattered clouds.7 mph57%29.92 "Hg9 mi
12:00 pm75 °FPassing clouds.6 mph65%29.92 "Hg9 mi
11:00 am73 °FPassing clouds.5 mph74%29.93 "Hg9 mi
10:00 am73 °FPartly sunny.7 mph78%29.95 "Hg9 mi
9:00 am70 °FMostly cloudy.5 mph94%29.95 "Hg9 mi
8:17 am68 °FMostly cloudy.3 mph94%29.95 "Hg9 mi
8:00 am68 °FMostly cloudy.5 mph94%29.96 "Hg9 mi
7:00 am68 °FPassing clouds.6 mph94%29.94 "Hg9 mi
6:00 am66 °FOvercast.5 mph100%29.94 "Hg9 mi
5:00 am66 °FLight rain. Mostly cloudy.5 mph100%29.95 "Hg9 mi
4:32 am66 °FRain. Dense fog.No wind100%29.95 "Hg1 mi
4:17 am66 °FRain. Dense fog.2 mph94%29.95 "Hg1 mi
3:34 am66 °FOvercast.No wind100%29.93 "Hg9 mi
3:00 am66 °FLight rain. Overcast.5 mph94%29.93 "Hg9 mi
2:22 am64 °FOvercast.6 mph100%29.94 "Hg9 mi
2:00 am64 °FLight rain. Overcast.5 mph94%29.95 "Hg9 mi
11:00 pm
Wed, Jul 26
64 °FOvercast.7 mph88%29.98 "Hg9 mi
10:00 pm64 °FOvercast.7 mph88%30.01 "Hg9 mi
9:00 pm64 °FOvercast.8 mph88%30.00 "Hg9 mi
8:00 pm64 °FLight rain. Passing clouds.7 mph88%30.00 "Hg9 mi
7:32 pm64 °FLight rain. Passing clouds.10 mph94%30.00 "Hg9 mi
5:43 pm72 °FLight rain. Overcast.3 mph69%30.11 "Hg9 mi
5:00 pm72 °FOvercast.7 mph69%30.06 "Hg9 mi
Weather by CustomWeather, © 2017

See weather overviewHow to use our weather pages